This is the latest recevied weather packets stored in our database for station/object K8RLH. If no packets are shown the sender has not sent any weather packets the latest 10 day(s).
| Time | Temp. | Humidity | Pressure | Rain* | Wind** | Luminosity | Snow |
|---|---|---|---|---|---|---|---|
| 1778114526 | 19.44° C | 89% | 1014.9 hPa | 6.1 mm | - | 0 W/m² | - |
| 1778114222 | 19.44° C | 87% | 1014.2 hPa | 1.27 mm | - | 0 W/m² | - |
| 1778113917 | 19.44° C | 87% | 1013.3 hPa | 0 mm | - | 0 W/m² | - |
| 1778113614 | 19.44° C | 87% | 1013.1 hPa | 0 mm | - | 0 W/m² | - |
| 1778113309 | 19.44° C | 87% | 1012.7 hPa | 0 mm | - | 0 W/m² | - |
| 1778113007 | 20° C | 86% | 1012.6 hPa | 0 mm | - | 0 W/m² | - |
| 1778112704 | 20° C | 85% | 1013.8 hPa | 0 mm | - | 0 W/m² | - |
| 1778112400 | 20° C | 85% | 1013.8 hPa | 0 mm | - | 1 W/m² | - |
| 1778112095 | 20.56° C | 84% | 1013.9 hPa | 0 mm | - | 2 W/m² | - |
| 1778111794 | 21.11° C | 83% | 1014.2 hPa | 0 mm | - | 1 W/m² | - |
| 1778111493 | 21.67° C | 80% | 1014.6 hPa | 0 mm | - | 1 W/m² | - |
| 1778111191 | 22.22° C | 77% | 1014.5 hPa | 0 mm | - | 1 W/m² | - |
| 1778110888 | 22.78° C | 75% | 1014.4 hPa | 0 mm | - | 1 W/m² | - |
| 1778110585 | 23.33° C | 74% | 1014.7 hPa | 0 mm | - | 2 W/m² | - |
| 1778110282 | 23.33° C | 74% | 1014.2 hPa | 0 mm | - | 2 W/m² | - |
| 1778109978 | 23.33° C | 73% | 1014.2 hPa | 0 mm | - | 4 W/m² | - |
| 1778109674 | 24.44° C | 70% | 1014.4 hPa | 0 mm | - | 5 W/m² | - |
| 1778109371 | 25.56° C | 65% | 1014.5 hPa | 0 mm | - | 2 W/m² | - |
| 1778109069 | 25.56° C | 64% | 1014.3 hPa | 0 mm | - | 2 W/m² | - |
| 1778108765 | 26.11° C | 63% | 1013.9 hPa | 0 mm | - | 3 W/m² | - |
| 1778108463 | 26.11° C | 63% | 1013.9 hPa | 0 mm | - | 4 W/m² | - |
| 1778108159 | 26.11° C | 62% | 1013.9 hPa | 0 mm | - | 4 W/m² | - |
| 1778107855 | 26.11° C | 61% | 1013.8 hPa | 0 mm | - | 6 W/m² | - |
| 1778107553 | 26.11° C | 61% | 1013.5 hPa | 0 mm | - | 12 W/m² | - |
| 1778107249 | 26.11° C | 61% | 1013.6 hPa | 0 mm | - | 10 W/m² | - |
* Rain latest hour (hover to see other rain measurements)
** Current wind speed in m/s (hover to see current wind gust speed)